Location: Hollin Hills
(38.7573°N, 77.0661°W)
Time: 04:30:58
(UTC+00:00)

ACS3 Solar Sail - Visible Passes

Search period start: 15 April 2026 00:00
Search period end: 25 April 2026 00:00
Orbit: 871 x 977 km, 97.2° (Epoch: 14 April)

Date Brightness Start Highest point End Pass type
(mag) Time Alt. Az. Time Alt. Az. Time Alt. Az.
15 Apr 3.9 05:19:05 10° NE 05:21:00 18° NE 05:21:00 18° NE visible
15 Apr 2.9 07:00:50 10° N 07:04:34 35° NNW 07:04:34 35° NNW visible
16 Apr 3.7 05:28:32 10° NNE 05:30:58 21° NE 05:30:58 21° NE visible
16 Apr 3.0 07:10:44 10° N 07:14:33 32° NW 07:14:33 32° NW visible
17 Apr 3.5 05:38:03 10° NNE 05:40:57 26° NE 05:40:57 26° NE visible
17 Apr 3.1 07:20:41 10° N 07:24:31 28° NW 07:24:31 28° NW visible
18 Apr 3.3 05:47:37 10° NNE 05:50:54 31° NE 05:50:54 31° NE visible
18 Apr 3.2 07:30:40 10° NNW 07:34:28 25° NW 07:34:28 25° NW visible
19 Apr 3.0 05:57:15 10° NNE 06:00:52 36° NE 06:00:52 36° NE visible
19 Apr 3.3 07:40:44 10° NNW 07:44:25 21° NW 07:44:25 21° NW visible
20 Apr 2.8 06:06:55 10° NNE 06:10:48 41° NNE 06:10:48 41° NNE visible
20 Apr 3.5 07:50:53 10° NNW 07:54:22 18° WNW 07:54:22 18° WNW visible
21 Apr 2.6 06:16:37 10° NNE 06:20:45 46° NNE 06:20:45 46° NNE visible
21 Apr 3.6 08:01:12 10° NNW 08:04:18 14° WNW 08:04:18 14° WNW visible
22 Apr 4.2 04:46:18 10° NE 04:47:07 12° ENE 04:47:07 12° ENE visible
22 Apr 2.5 06:26:19 10° N 06:30:41 49° N 06:30:41 49° N visible
22 Apr 3.8 08:11:52 10° NW 08:13:51 12° WNW 08:14:14 12° WNW visible
23 Apr 4.0 04:55:17 10° NE 04:57:02 15° ENE 04:57:02 15° ENE visible
23 Apr 2.4 06:36:05 10° N 06:40:36 48° NNW 06:40:36 48° NNW visible
24 Apr 3.8 05:04:29 10° NE 05:06:57 19° ENE 05:06:57 19° ENE visible
24 Apr 2.5 06:45:53 10° N 06:50:31 45° NW 06:50:31 45° NW visible
